This is the latest recevied weather packets stored in our database for station/object KC5DAQ-2. If no packets are shown the sender has not sent any weather packets the latest 10 day(s).
| Time | Temp. | Humidity | Pressure | Rain* | Wind** | Luminosity | Snow |
|---|---|---|---|---|---|---|---|
| 1787860383 | 40° C | 68% | 1004.7 hPa | 0 mm | - | 394 W/m² | - |
| 1787860322 | 40° C | 68% | 1004.7 hPa | 0 mm | - | 528 W/m² | - |
| 1787860262 | 40° C | 68% | 1004.8 hPa | 0 mm | - | 928 W/m² | - |
| 1787860204 | 40° C | 68% | 1004.8 hPa | 0 mm | - | 928 W/m² | - |
| 1787860144 | 40° C | 67% | 1004.8 hPa | 0 mm | - | 928 W/m² | - |
| 1787860084 | 40° C | 67% | 1004.8 hPa | 0 mm | - | 928 W/m² | - |
| 1787860025 | 40° C | 66% | 1004.8 hPa | 0 mm | - | 920 W/m² | - |
| 1787859963 | 40° C | 66% | 1004.7 hPa | 0 mm | - | 812 W/m² | - |
| 1787859902 | 40° C | 66% | 1004.9 hPa | 0 mm | - | 944 W/m² | - |
| 1787859843 | 40° C | 66% | 1004.9 hPa | 0 mm | - | 944 W/m² | - |
| 1787859784 | 40° C | 66% | 1004.9 hPa | 0 mm | - | 944 W/m² | - |
| 1787859722 | 40° C | 67% | 1004.9 hPa | 0 mm | - | 944 W/m² | - |
| 1787859665 | 40° C | 67% | 1004.9 hPa | 0 mm | - | 777 W/m² | - |
| 1787859604 | 40° C | 67% | 1005 hPa | 0 mm | - | 777 W/m² | - |
| 1787859543 | 40° C | 67% | 1005 hPa | 0 mm | - | 322 W/m² | - |
| 1787859484 | 40° C | 67% | 1004.9 hPa | 0 mm | - | 997 W/m² | - |
| 1787859423 | 40° C | 67% | 1004.9 hPa | 0 mm | - | 997 W/m² | - |
| 1787859364 | 40° C | 67% | 1004.9 hPa | 0 mm | - | 997 W/m² | - |
| 1787859305 | 40° C | 67% | 1004.9 hPa | 0 mm | - | 997 W/m² | - |
| 1787859242 | 40° C | 67% | 1004.9 hPa | 0 mm | - | 1009 W/m² | - |
| 1787859184 | 40° C | 67% | 1004.9 hPa | 0 mm | - | 197 W/m² | - |
| 1787859123 | 40° C | 67% | 1004.9 hPa | 0 mm | - | 264 W/m² | - |
| 1787859064 | 40° C | 67% | 1005 hPa | 0 mm | - | 264 W/m² | - |
| 1787859002 | 40° C | 67% | 1005 hPa | 0 mm | - | 264 W/m² | - |
| 1787858944 | 40° C | 67% | 1005.1 hPa | 0 mm | - | 264 W/m² | - |
* Rain latest hour (hover to see other rain measurements)
** Current wind speed in m/s (hover to see current wind gust speed)